GW1888 Weather Reports


time (UTC)temp
C
wind
direction
speed
KPH
gust
KPH
rain 1hr
cm
rain 24hr
cm
rain mn
cm
humidity
%
barometer
mb
20260504231931 19 226 8.0 11.3 0.00 0.00 0.00 47 1007.7
20260504231427 18 197 11.3 11.3 0.00 0.00 0.00 47 1007.6
20260504230924 19 236 11.3 14.5 0.00 0.00 0.00 43 1007.5
20260504230421 18 276 9.7 11.3 0.00 0.00 0.00 49 1007.5
20260504225920 19 261 9.7 11.3 0.00 0.00 0.00 48 1007.4
20260504225416 19 243 11.3 11.3 0.00 0.00 0.00 45 1006.9
20260504224914 19 247 12.9 16.1 0.00 0.00 0.00 45 1007.1
20260504224410 19 303 16.1 19.3 0.00 0.00 0.00 45 1007.1
20260504223907 19 263 16.1 22.5 0.00 0.00 0.00 43 1007.0
20260504223402 20 215 12.9 16.1 0.00 0.00 0.00 45 1007.0
20260504222859 20 228 17.7 19.3 0.00 0.00 0.00 42 1006.9
20260504222356 20 226 14.5 16.1 0.00 0.00 0.00 43 1006.8
20260504221854 20 250 27.4 35.4 0.00 0.00 0.00 42 1007.1
20260504221350 20 244 14.5 16.1 0.00 0.00 0.00 47 1006.9
20260504220848 20 281 30.6 33.8 0.00 0.00 0.00 40 1007.0
20260504220344 20 282 22.5 30.6 0.00 0.00 0.00 40 1007.2
20260504215842 19 235 19.3 22.5 0.00 0.00 0.00 41 1007.2
20260504215338 19 261 16.1 19.3 0.00 0.00 0.00 41 1007.1
20260504214834 19 220 11.3 16.1 0.00 0.00 0.00 41 1007.0
20260504214331 19 232 25.7 30.6 0.00 0.00 0.00 38 1007.2
20260504213828 20 287 20.9 30.6 0.00 0.00 0.00 41 1007.2
20260504213323 20 240 25.7 30.6 0.00 0.00 0.00 39 1007.0
20260504212821 20 349 8.0 11.3 0.00 0.00 0.00 41 1007.0
20260504212317 19 258 11.3 22.5 0.00 0.00 0.00 43 1006.9
20260504211815 20 277 19.3 30.6 0.00 0.00 0.00 46 1007.1
20260504211311 19 260 17.7 33.8 0.00 0.00 0.00 39 1007.0
20260504210809 19 268 24.1 27.4 0.00 0.00 0.00 39 1007.0
20260504210306 19 296 27.4 41.8 0.00 0.00 0.00 39 1007.2
20260504205803 19 251 20.9 30.6 0.00 0.00 0.00 44 1007.0
20260504205300 20 164 4.8 11.3 0.00 0.00 0.00 39 1007.0
20260504204758 20 194 4.8 11.3 0.00 0.00 0.00 40 1006.9
20260504204256 20 30 12.9 19.3 0.00 0.00 0.00 39 1006.7
20260504203756 21 289 14.5 16.1 0.00 0.00 0.00 35 1007.1
20260504203252 20 233 14.5 22.5 0.00 0.00 0.00 42 1006.7
20260504202747 20 188 8.0 11.3 0.00 0.00 0.00 39 1006.7
20260504202244 20 237 25.7 30.6 0.00 0.00 0.00 39 1007.1
20260504201741 19 230 22.5 27.4 0.00 0.00 0.00 41 1007.2
20260504201238 20 240 33.8 38.6 0.00 0.00 0.00 41 1007.1
20260504200736 20 260 20.9 30.6 0.00 0.00 0.00 42 1007.1
20260504200232 20 248 17.7 22.5 0.00 0.00 0.00 40 1006.9
20260504195729 20 267 11.3 16.1 0.00 0.00 0.00 43 1007.2
20260504195225 19 217 24.1 27.4 0.00 0.00 0.00 39 1007.1
20260504194722 19 236 30.6 38.6 0.00 0.00 0.00 42 1007.2
20260504194218 18 219 25.7 27.4 0.00 0.00 0.00 41 1007.1
20260504193714 19 218 20.9 27.4 0.00 0.00 0.00 43 1007.2
20260504193212 20 197 19.3 27.4 0.00 0.00 0.00 42 1007.1
20260504192710 19 273 19.3 33.8 0.00 0.00 0.00 44 1007.3
20260504192208 19 243 27.4 35.4 0.00 0.00 0.00 44 1007.4
20260504191706 19 262 14.5 24.1 0.00 0.00 0.00 43 1007.2
20260504191203 20 194 19.3 30.6 0.00 0.00 0.00 42 1007.1
20260504190658 20 251 20.9 22.5 0.00 0.00 0.00 44 1007.1
20260504190155 19 214 11.3 14.5 0.00 0.00 0.00 41 1007.1
20260504185651 18 270 11.3 16.1 0.00 0.00 0.00 44 1007.4
20260504185148 20 235 12.9 16.1 0.00 0.00 0.00 39 1007.2
20260504184644 19 188 16.1 24.1 0.00 0.00 0.00 44 1007.3
20260504184139 19 239 17.7 27.4 0.00 0.00 0.00 42 1007.3
20260504183636 18 253 12.9 16.1 0.00 0.00 0.00 42 1007.2
20260504183134 18 261 22.5 27.4 0.00 0.00 0.00 42 1007.2
20260504182631 18 232 16.1 16.1 0.00 0.00 0.00 40 1007.4
20260504182129 18 232 25.7 38.6 0.00 0.00 0.00 46 1007.6
20260504181626 18 254 12.9 27.4 0.00 0.00 0.00 41 1007.5
20260504181123 18 291 14.5 16.1 0.00 0.00 0.00 40 1007.5
20260504180622 18 253 24.1 38.6 0.00 0.00 0.00 39 1007.4
20260504180121 18 232 16.1 19.3 0.00 0.00 0.00 40 1007.3
20260504175618 18 263 17.7 24.1 0.00 0.00 0.00 43 1007.5
20260504175114 18 277 30.6 35.4 0.00 0.00 0.00 39 1007.5
20260504174613 18 258 22.5 24.1 0.00 0.00 0.00 41 1007.5
20260504174109 18 255 32.2 35.4 0.00 0.00 0.00 43 1007.6
20260504173606 18 198 17.7 19.3 0.00 0.00 0.00 43 1007.5
20260504173104 18 321 20.9 22.5 0.00 0.00 0.00 43 1007.4
20260504172559 17 243 16.1 19.3 0.00 0.00 0.00 45 1007.5
20260504172056 18 233 32.2 41.8 0.00 0.00 0.00 39 1007.6
20260504171553 17 233 30.6 41.8 0.00 0.00 0.00 40 1007.9
20260504171050 18 253 16.1 24.1 0.00 0.00 0.00 41 1007.5
20260504170545 17 216 27.4 30.6 0.00 0.00 0.00 41 1007.5
20260504150930 16 231 32.2 41.8 0.00 0.00 0.00 48 1008.4
20260504150426 15 237 12.9 14.5 0.00 0.00 0.00 47 1008.4
20260504140853 14 303 11.3 16.1 0.00 0.00 0.00 55 1009.2
20260504140349 13 268 19.3 22.5 0.00 0.00 0.00 56 1009.7
20260504130818 12 284 19.3 33.8 0.00 0.00 0.00 62 1010.2
20260504130314 12 240 20.9 24.1 0.00 0.00 0.00 60 1009.8
20260504120237 9 145 9.7 11.3 0.00 0.00 0.00 69 1010.6
20260504110705 9 212 14.5 24.1 0.00 0.00 0.00 69 1010.8
20260504110201 8 211 14.5 16.1 0.00 0.00 0.00 70 1010.7
20260504100125 8 179 9.7 11.3 0.00 0.00 0.00 73 1010.4
20260504081518 6 132 3.2 3.2 0.00 0.00 0.00 78 1010.5
20260504081013 6 97 3.2 3.2 0.00 0.00 0.00 74 1010.5
20260504080510 6 57 3.2 4.8 0.00 0.00 0.00 76 1010.4
20260504050317 1 140 0.0 3.2 0.00 0.00 0.00 92 1010.5
20260504045814 0 154 0.0 0.0 0.00 0.00 0.00 92 1010.5
20260504045309 0 155 0.0 0.0 0.00 0.00 0.00 92 1010.4
20260504044806 1 136 1.6 3.2 0.00 0.00 0.00 92 1010.3
20260504044304 0 153 0.0 0.0 0.00 0.00 0.00 92 1010.4
20260504043801 1 63 3.2 3.2 0.00 0.00 0.00 92 1010.5
20260504043258 1 150 0.0 0.0 0.00 0.00 0.00 91 1010.6
20260504042755 1 152 0.0 0.0 0.00 0.00 0.00 91 1010.4
20260504042251 1 137 0.0 3.2 0.00 0.00 0.00 91 1010.5
20260504041748 1 142 1.6 3.2 0.00 0.00 0.00 90 1010.6
20260504041244 1 101 3.2 3.2 0.00 0.00 0.00 90 1010.5
20260504040740 1 94 3.2 3.2 0.00 0.00 0.00 89 1010.6
20260504040238 2 109 3.2 3.2 0.00 0.00 0.00 89 1010.4
20260504035733 2 153 0.0 0.0 0.00 0.00 0.00 89 1010.2
20260504035231 2 130 3.2 3.2 0.00 0.00 0.00 89 1010.3
20260504034728 2 99 3.2 4.8 0.00 0.00 0.00 89 1009.9
20260504034225 2 116 3.2 3.2 0.00 0.00 0.00 88 1010.2
20260504033723 2 141 0.0 3.2 0.00 0.00 0.00 87 1010.3
20260504033221 2 145 0.0 0.0 0.00 0.00 0.00 87 1010.4
20260504032717 2 138 3.2 3.2 0.00 0.00 0.00 87 1010.0
20260504032214 2 148 0.0 3.2 0.00 0.00 0.00 86 1010.2
20260504031711 2 125 1.6 3.2 0.00 0.00 0.00 85 1010.0
20260504031208 2 153 0.0 0.0 0.00 0.00 0.00 84 1010.0
20260504030704 2 150 0.0 0.0 0.00 0.00 0.00 84 1010.0
20260504030202 3 150 0.0 0.0 0.00 0.00 0.00 83 1009.9
20260504025658 3 148 0.0 0.0 0.00 0.00 0.00 83 1010.0
20260504025155 3 147 0.0 0.0 0.00 0.00 0.00 82 1010.0
20260504024652 3 148 0.0 0.0 0.00 0.00 0.00 81 1010.0
20260504024148 3 133 1.6 3.2 0.00 0.00 0.00 81 1009.9
20260504023645 3 148 0.0 3.2 0.00 0.00 0.00 79 1010.2
20260504023141 3 148 0.0 0.0 0.00 0.00 0.00 78 1010.2
20260504022637 3 139 1.6 3.2 0.00 0.00 0.00 77 1010.2
20260504022133 3 128 3.2 3.2 0.00 0.00 0.00 76 1010.2
20260504021632 3 159 0.0 0.0 0.00 0.00 0.00 75 1010.3
20260504021128 4 145 0.0 3.2 0.00 0.00 0.00 75 1010.0
20260504020625 4 138 1.6 3.2 0.00 0.00 0.00 74 1010.0
20260504020121 5 121 3.2 3.2 0.00 0.00 0.00 74 1009.9
20260504015618 5 153 1.6 3.2 0.00 0.00 0.00 72 1009.8
20260504015114 5 154 0.0 0.0 0.00 0.00 0.00 71 1009.9
20260504014610 5 129 3.2 3.2 0.00 0.00 0.00 72 1010.2
20260504014107 6 83 3.2 4.8 0.00 0.00 0.00 70 1010.2
20260504013605 7 187 1.6 3.2 0.00 0.00 0.00 65 1009.9
20260504013102 7 197 3.2 3.2 0.00 0.00 0.00 65 1010.0
20260504012559 7 229 6.4 8.0 0.00 0.00 0.00 61 1009.9
20260504012057 7 232 6.4 8.0 0.00 0.00 0.00 63 1009.7
20260504011553 7 241 4.8 4.8 0.00 0.00 0.00 66 1009.6
20260504011049 7 252 4.8 4.8 0.00 0.00 0.00 65 1009.7
20260504010545 7 234 4.8 4.8 0.00 0.00 0.00 64 1009.6
20260504010042 7 217 3.2 4.8 0.00 0.00 0.00 64 1009.6
20260504005538 7 193 1.6 3.2 0.00 0.00 0.00 62 1009.6
20260504005036 7 247 4.8 4.8 0.00 0.00 0.00 63 1009.4
20260504004533 7 190 1.6 3.2 0.00 0.00 0.00 60 1009.5
20260504004030 8 197 3.2 4.8 0.00 0.00 0.00 63 1009.3
20260504003526 8 224 4.8 8.0 0.00 0.00 0.00 65 1009.4
20260504003023 7 263 4.8 8.0 0.00 0.00 0.00 66 1009.3
20260504002520 7 191 0.0 0.0 0.00 0.00 0.00 62 1009.1
20260504002018 7 168 0.0 0.0 0.00 0.00 0.00 59 1009.1
20260504001515 7 115 1.6 3.2 0.00 0.00 0.00 58 1009.0
20260504001011 7 142 3.2 3.2 0.00 0.00 0.00 55 1008.9
20260504000509 8 145 1.6 3.2 0.00 0.00 0.00 54 1008.9
20260504000006 8 59 8.0 8.0 0.00 0.00 0.00 55 1008.8
20260503235504 8 48 4.8 8.0 0.00 0.00 0.00 53 1008.9
20260503235001 8 214 3.2 4.8 0.00 0.00 0.00 56 1008.8
20260503234458 8 36 3.2 4.8 0.00 0.00 0.00 55 1008.8
20260503233956 8 193 3.2 3.2 0.00 0.00 0.00 53 1008.7
20260503233452 8 159 0.0 3.2 0.00 0.00 0.00 54 1008.7
20260503232948 8 68 4.8 4.8 0.00 0.00 0.00 54 1008.5
20260503232446 8 159 6.4 8.0 0.00 0.00 0.00 53 1008.6